Wind_Speed
45 45 44 43 42 41 40 40 39 38 38 37 37 36 34 33 33 33 32 31 31 31 31 32 33 32 32 32 32 32 32 33 32 32 32 32 32 33 33 33 33 34 34
45 44 43 43 42 41 40 40 40 39 39 38 38 37 36 35 34 34 33 32 32 32 33 33 33 33 33 33 33 32 32 32 32 32 31 31 31 32 32 33 34 34 34
44 44 43 43 42 41 41 40 40 39 39 39 38 38 37 36 35 34 34 34 34 33 33 32 33 33 33 33 33 32 32 32 32 32 32 32 32 32 33 33 34 34 34
42 42 43 42 42 42 41 41 40 40 39 39 39 38 37 37 36 35 35 35 35 34 34 33 33 33 33 33 33 32 33 33 32 31 32 32 33 33 33 33 34 35 35
42 41 42 43 42 42 42 41 41 40 40 40 39 39 38 37 36 36 35 35 35 35 34 34 34 33 33 33 33 33 33 33 33 33 33 34 34 34 34 33 33 34 34
40 41 42 42 43 42 41 41 41 41 40 40 40 39 39 38 37 36 36 35 35 35 34 34 34 34 33 34 33 34 34 34 34 35 35 35 35 34 34 33 32 33 33
38 39 40 40 41 41 41 41 41 41 41 40 40 40 39 39 38 37 37 36 35 35 34 33 33 33 33 34 34 34 34 34 34 34 34 34 34 35 34 34 33 33 32
37 37 38 39 39 40 41 41 41 41 41 41 41 40 40 39 38 37 37 37 36 35 34 34 33 33 33 34 34 34 33 33 33 33 33 34 35 34 34 33 33 32 32
36 35 36 38 38 39 40 40 40 41 41 41 41 40 40 40 39 38 37 37 37 36 35 34 34 34 33 33 33 33 32 32 33 33 33 34 33 33 33 33 33 33 32
34 35 35 36 37 38 39 40 40 40 40 40 40 40 40 40 39 38 38 37 37 36 36 35 34 34 34 33 33 33 33 33 32 33 33 33 32 32 33 33 33 33 33
34 34 35 35 36 37 38 39 40 40 40 40 40 39 40 39 39 39 38 37 37 37 36 35 34 34 34 33 33 33 32 33 33 33 33 32 32 32 32 33 32 32 32
33 33 34 34 35 36 37 38 39 40 40 39 39 39 39 40 39 39 38 38 38 37 36 36 35 34 34 33 33 33 32 32 33 33 32 32 32 32 32 32 31 31 31
32 32 33 34 34 35 35 36 37 39 39 39 39 39 39 39 39 39 38 38 37 37 36 36 35 34 33 33 32 32 32 32 32 32 31 31 31 31 31 30 30 30 30
31 32 32 33 34 34 34 35 36 37 38 39 40 40 39 38 38 38 38 38 37 36 36 35 35 34 33 33 32 32 31 31 31 31 31 31 30 30 30 30 29 29 30
31 31 32 32 33 34 34 34 35 36 37 38 39 39 39 38 38 38 38 38 37 37 36 35 34 34 34 33 32 32 31 31 31 31 31 30 31 31 30 29 29 29 29
31 31 31 31 32 33 34 34 35 35 36 37 37 38 38 38 37 37 37 37 36 36 36 35 34 34 34 33 32 32 32 31 31 30 30 30 30 30 30 29 29 29 29
30 31 31 31 31 32 33 34 34 35 35 36 36 36 37 37 38 37 37 36 36 36 36 35 34 34 34 34 33 32 32 31 30 30 30 29 29 29 29 30 30 30 29
30 31 31 32 31 31 31 33 34 34 35 34 35 36 36 36 37 37 36 36 35 35 35 35 35 34 34 34 34 33 32 31 30 30 30 29 29 29 30 30 30 29 28
29 31 32 32 32 32 31 31 32 33 33 34 34 35 35 36 36 36 36 36 35 35 36 36 36 35 34 34 34 33 32 31 31 30 30 29 29 29 29 29 29 29 29
29 31 32 32 32 32 32 32 32 33 33 34 34 34 34 35 36 36 36 36 36 36 36 36 36 36 35 34 34 33 32 31 31 31 30 30 29 29 29 29 29 29 29
29 30 31 31 32 32 33 33 33 33 33 33 33 34 34 34 35 36 36 36 36 35 35 35 35 35 34 34 33 33 32 31 31 30 30 29 29 29 28 28 27 27 26
29 29 30 31 31 31 32 32 33 33 32 32 33 33 33 33 34 34 35 35 34 34 34 34 34 34 34 34 33 33 32 31 30 29 28 28 28 28 28 27 26 25 24
29 30 30 30 31 31 31 32 32 32 32 33 33 32 32 32 33 34 34 35 34 34 33 33 33 33 33 33 32 32 32 31 30 29 28 27 27 27 26 26 25 24 23
29 29 30 31 31 31 31 32 32 33 33 33 33 33 32 31 31 33 33 34 34 34 33 33 33 33 32 32 32 31 31 30 29 28 27 26 25 25 25 24 24 24 24
29 29 29 30 31 31 31 32 32 32 32 32 32 32 32 32 32 32 33 34 34 34 33 33 32 32 32 31 31 31 30 29 29 29 28 27 25 24 24 24 23 23 23
29 29 29 29 30 30 30 31 31 31 31 31 31 32 32 32 32 31 31 32 32 33 33 32 31 30 30 30 29 29 29 29 29 28 27 27 26 25 25 24 23 24 24
Wind_Direction
232 233 234 233 234 235 235 237 239 241 243 245 247 249 252 254 257 259 261 262 264 266 269 272 274 277 280 282 283 284 286 288 289 289 291 293 295 297 297 299 301 301 300
232 233 234 234 234 235 236 237 239 241 243 245 247 250 252 254 257 259 261 262 265 268 270 273 275 276 279 281 283 284 286 288 288 288 289 291 292 295 296 298 300 301 300
233 234 234 234 234 235 237 238 239 241 243 245 247 250 252 255 257 259 261 263 265 267 270 272 274 275 278 281 283 284 285 287 287 287 288 289 291 294 296 298 300 301 302
233 233 234 234 235 236 238 239 240 242 243 245 247 250 253 254 256 258 261 263 265 267 269 271 273 276 278 279 282 284 285 286 287 288 289 291 293 294 297 299 300 301 302
233 233 234 235 236 237 238 240 241 242 244 245 247 250 252 253 255 258 260 262 265 267 269 270 272 275 278 278 281 284 284 286 286 287 289 291 292 295 298 299 301 301 302
234 234 234 235 236 237 238 240 241 243 244 246 248 250 252 253 255 257 259 261 264 266 268 270 273 275 277 278 281 283 284 285 287 288 289 291 293 295 298 299 301 302 302
235 235 235 236 237 238 239 239 241 243 245 246 248 250 251 253 254 256 258 261 263 266 268 270 272 274 276 278 279 282 284 285 287 288 290 292 294 295 297 300 301 302 302
237 237 237 238 238 239 239 240 241 243 244 246 248 250 251 252 253 255 257 259 262 265 267 269 271 273 276 279 280 282 283 284 286 288 289 291 294 296 297 299 300 301 302
238 238 239 239 239 239 240 241 241 242 243 245 247 249 250 251 253 254 256 259 261 263 266 268 270 273 275 278 280 281 284 285 286 289 290 292 294 296 296 297 299 301 302
238 239 240 240 240 241 241 241 242 242 243 245 247 248 250 251 252 254 256 258 261 263 265 267 270 272 274 277 279 281 282 284 287 289 291 292 294 295 296 296 297 300 302
239 240 241 241 242 242 242 242 243 243 244 245 247 248 250 251 252 254 255 258 260 262 264 266 269 272 274 276 278 280 281 284 286 288 290 292 293 295 296 297 298 299 301
239 240 241 243 243 243 243 242 243 244 244 245 247 248 249 251 252 254 256 257 260 262 264 265 268 271 273 275 276 278 281 284 286 288 290 292 293 295 296 298 299 300 301
239 239 241 243 244 245 245 244 244 244 244 245 247 248 249 250 252 254 255 257 259 261 264 265 267 269 272 274 276 278 280 283 285 287 289 291 294 295 297 298 300 301 301
240 240 241 243 245 245 246 246 245 245 245 246 246 247 248 250 252 253 254 256 258 260 263 265 266 267 270 272 275 277 279 282 285 286 288 291 292 295 296 297 298 300 301
241 241 242 244 246 246 246 246 246 246 246 247 247 247 248 249 251 253 254 256 257 259 261 263 264 265 268 271 273 275 278 281 284 285 288 290 291 294 295 295 296 298 300
242 243 245 246 248 248 247 247 247 247 248 248 248 248 248 249 251 252 254 256 257 258 259 261 263 265 267 269 272 275 277 280 284 285 286 288 291 292 292 294 296 297 298
243 245 246 247 248 248 248 248 247 248 249 249 249 249 250 250 250 252 253 255 257 258 259 260 262 265 266 268 271 274 276 279 281 282 284 286 289 291 292 294 295 297 297
247 246 247 248 249 250 249 249 249 250 250 251 251 251 251 252 252 252 252 254 256 258 259 261 262 264 266 267 270 273 275 277 279 281 282 284 286 288 291 293 295 296 297
249 248 247 248 250 251 250 250 250 251 251 252 252 252 252 252 253 253 253 254 255 257 259 260 262 263 265 266 268 271 274 276 277 279 280 282 284 287 289 291 293 294 295
251 250 250 249 250 251 251 252 252 252 252 253 253 253 253 253 253 253 254 255 256 256 258 259 261 262 263 265 268 270 273 274 275 276 278 281 283 285 288 290 291 292 293
254 253 252 252 252 252 252 252 253 253 253 254 255 256 255 255 254 254 254 255 256 256 258 259 260 261 262 264 266 268 271 272 274 275 276 279 281 283 287 290 291 292 292
255 254 253 253 253 253 253 252 253 253 254 255 256 257 257 256 255 254 254 255 256 257 257 257 258 260 261 263 265 266 268 270 271 273 274 277 280 282 284 287 290 291 291
256 254 254 254 254 254 253 253 253 253 254 254 255 256 257 257 256 255 255 255 256 257 257 256 257 259 260 262 264 266 266 267 268 270 272 275 278 280 282 285 286 288 290
257 255 255 256 256 256 254 254 254 254 254 255 255 256 256 257 257 257 256 256 256 256 256 256 257 258 260 262 263 265 265 264 265 269 271 274 277 279 281 282 284 286 288
257 257 257 258 258 257 256 255 255 255 256 256 256 255 255 255 257 258 258 257 256 255 254 254 255 257 258 260 262 264 263 263 265 268 271 272 274 277 280 281 283 284 286
258 258 259 259 259 258 257 256 256 256 256 256 255 256 256 255 256 257 257 257 256 255 254 254 255 257 258 258 260 261 260 262 265 268 270 271 272 274 276 279 281 283 284
Height
5726 5731 5737 5742 5747 5752 5756 5760 5764 5768 5771 5775 5777 5780 5782 5784 5785 5787 5788 5789 5790 5790 5791 5790 5790 5790 5789 5789 5788 5786 5785 5783 5781 5780 5778 5776 5773 5771 5768 5765 5762 5759 5756
5718 5724 5729 5735 5739 5744 5748 5753 5756 5760 5764 5767 5770 5772 5775 5777 5778 5780 5781 5782 5783 5783 5783 5783 5783 5783 5782 5781 5780 5779 5778 5776 5774 5773 5771 5770 5768 5764 5761 5758 5755 5751 5748
5711 5716 5721 5726 5731 5736 5740 5745 5748 5752 5756 5759 5762 5764 5767 5769 5771 5773 5774 5775 5775 5776 5776 5776 5775 5775 5775 5774 5773 5772 5770 5769 5767 5765 5764 5762 5761 5758 5755 5752 5748 5744 5741
5702 5708 5713 5718 5723 5728 5732 5737 5741 5744 5748 5751 5754 5756 5759 5761 5763 5765 5766 5767 5768 5768 5768 5769 5768 5768 5768 5767 5766 5764 5763 5762 5760 5758 5756 5755 5752 5750 5748 5745 5741 5737 5733
5694 5700 5705 5710 5715 5719 5724 5728 5732 5736 5739 5743 5746 5748 5751 5753 5755 5756 5758 5759 5760 5760 5761 5761 5761 5760 5760 5759 5758 5757 5756 5754 5752 5751 5749 5747 5745 5742 5740 5738 5735 5730 5726
5687 5692 5697 5702 5707 5711 5716 5720 5724 5727 5731 5734 5737 5740 5742 5744 5746 5748 5750 5751 5752 5752 5753 5753 5753 5753 5752 5752 5751 5750 5748 5747 5745 5743 5741 5739 5738 5735 5732 5729 5726 5723 5719
5679 5684 5689 5694 5698 5703 5707 5711 5715 5718 5722 5725 5728 5731 5733 5735 5738 5740 5741 5742 5743 5744 5745 5745 5745 5745 5744 5744 5743 5742 5741 5739 5738 5736 5734 5731 5729 5727 5724 5721 5718 5715 5712
5672 5677 5681 5685 5690 5694 5698 5702 5706 5709 5713 5716 5719 5722 5724 5727 5729 5731 5733 5734 5735 5736 5737 5737 5737 5737 5737 5736 5735 5734 5733 5731 5730 5728 5726 5724 5721 5718 5716 5713 5710 5708 5705
5665 5669 5673 5677 5681 5685 5689 5693 5696 5700 5703 5707 5710 5712 5715 5718 5720 5722 5724 5725 5727 5728 5729 5729 5729 5729 5729 5728 5727 5726 5725 5723 5722 5720 5718 5716 5713 5710 5708 5705 5702 5700 5697
5658 5662 5666 5669 5673 5677 5681 5684 5687 5691 5694 5697 5700 5703 5706 5708 5711 5713 5715 5717 5718 5719 5720 5721 5721 5721 5720 5720 5719 5718 5717 5716 5714 5712 5710 5708 5706 5703 5700 5697 5694 5691 5688
5651 5654 5658 5661 5665 5668 5672 5675 5679 5682 5685 5688 5691 5694 5696 5699 5701 5704 5706 5707 5709 5710 5711 5712 5712 5712 5712 5712 5711 5710 5708 5708 5706 5704 5702 5700 5698 5695 5692 5689 5686 5683 5680
5643 5647 5650 5653 5656 5660 5663 5666 5669 5673 5676 5679 5682 5684 5687 5689 5692 5694 5696 5698 5700 5701 5702 5703 5703 5704 5703 5703 5703 5702 5701 5700 5698 5696 5694 5692 5689 5687 5684 5681 5678 5676 5673
5636 5639 5643 5646 5649 5652 5654 5657 5660 5663 5666 5670 5672 5675 5677 5680 5682 5685 5687 5689 5690 5691 5692 5693 5694 5695 5695 5694 5694 5694 5693 5691 5690 5688 5686 5684 5682 5679 5676 5673 5671 5668 5666
5629 5632 5635 5638 5641 5643 5646 5648 5651 5654 5657 5660 5663 5665 5668 5670 5673 5675 5677 5679 5681 5682 5683 5684 5685 5686 5686 5686 5686 5685 5684 5683 5682 5680 5678 5676 5674 5671 5669 5666 5664 5661 5659
5622 5625 5628 5630 5633 5635 5638 5640 5642 5645 5648 5650 5653 5656 5658 5661 5663 5665 5667 5669 5671 5672 5674 5675 5676 5677 5677 5677 5677 5677 5676 5675 5673 5672 5670 5668 5666 5663 5661 5659 5657 5655 5652
5614 5617 5620 5622 5625 5627 5629 5632 5634 5636 5639 5641 5644 5646 5649 5651 5654 5656 5658 5660 5661 5663 5664 5665 5667 5667 5668 5669 5668 5668 5668 5667 5665 5664 5662 5661 5659 5656 5654 5652 5650 5648 5645
5607 5610 5612 5614 5617 5619 5621 5623 5625 5628 5630 5632 5635 5637 5639 5641 5644 5646 5648 5650 5652 5653 5655 5656 5657 5658 5659 5660 5660 5659 5659 5658 5657 5656 5654 5653 5651 5650 5648 5645 5643 5641 5638
5600 5602 5604 5606 5608 5611 5613 5615 5617 5619 5621 5623 5625 5627 5629 5632 5634 5636 5638 5640 5642 5644 5645 5647 5648 5649 5650 5650 5651 5651 5650 5650 5649 5648 5647 5646 5644 5642 5641 5639 5637 5634 5632
5593 5594 5596 5598 5600 5602 5605 5607 5609 5610 5613 5614 5616 5618 5620 5622 5624 5626 5628 5630 5632 5634 5635 5637 5638 5639 5640 5641 5641 5642 5642 5641 5641 5640 5639 5638 5636 5635 5633 5631 5629 5627 5625
5585 5586 5588 5590 5592 5594 5596 5598 5600 5602 5604 5606 5607 5609 5610 5612 5614 5616 5618 5620 5622 5624 5625 5627 5628 5629 5630 5631 5632 5633 5633 5633 5633 5632 5631 5630 5628 5627 5625 5624 5622 5620 5618
5577 5578 5580 5582 5584 5586 5588 5590 5592 5593 5595 5596 5598 5600 5601 5603 5604 5606 5608 5610 5612 5614 5616 5617 5619 5620 5621 5621 5622 5623 5624 5624 5623 5623 5623 5622 5620 5619 5617 5616 5614 5613 5611
5569 5570 5572 5574 5576 5577 5579 5581 5583 5584 5586 5588 5589 5591 5592 5593 5595 5597 5599 5601 5602 5604 5606 5607 5609 5610 5611 5612 5613 5614 5614 5614 5615 5615 5614 5613 5612 5611 5610 5608 5607 5606 5604
5561 5562 5564 5566 5567 5569 5570 5572 5574 5575 5577 5579 5580 5582 5583 5584 5585 5587 5589 5591 5593 5595 5596 5598 5599 5601 5602 5603 5604 5604 5605 5605 5606 5606 5606 5605 5604 5603 5602 5601 5600 5599 5598
5553 5554 5556 5557 5559 5560 5561 5563 5564 5566 5568 5569 5571 5572 5574 5575 5576 5578 5579 5581 5583 5585 5587 5588 5590 5591 5592 5593 5594 5595 5595 5596 5597 5597 5597 5597 5597 5596 5595 5594 5593 5592 5591
5545 5546 5548 5549 5550 5551 5552 5553 5555 5557 5558 5560 5561 5563 5564 5566 5567 5569 5570 5571 5573 5575 5577 5579 5580 5582 5583 5584 5585 5586 5587 5588 5589 5589 5589 5590 5590 5589 5588 5588 5587 5586 5585
5537 5538 5539 5540 5541 5542 5543 5544 5546 5547 5549 5550 5552 5553 5555 5556 5558 5559 5561 5562 5564 5565 5567 5569 5571 5573 5574 5575 5576 5577 5578 5579 5580 5581 5582 5582 5582 5582 5582 5581 5580 5579 5578